Regional Weather Roundup
Issued by NWS

Home | Current Version | Previous Version | Graphics & Text | Print | Product List | Glossary On
Versions: 1 2 3 4 5 6 7 8 9 10 11 12 13 14 15 16 17 18 19 20 21 22 23 24 25 26 27 28 29 30 31 32 33 34 35 36 37 38 39 40 41 42 43 44 45 46 47 48 49 50
000
ASUS43 KBIS 200110
RWRND

NORTH DAKOTA REGIONAL WEATHER ROUNDUP
NATIONAL WEATHER SERVICE BISMARCK ND
800 PM CDT SUN APR 19 2015

NOTE: "FAIR" INDICATES FEW OR NO CLOUDS BELOW 12,000 FEET WITH NO
SIGNIFICANT WEATHER AND/OR OBSTRUCTIONS TO VISIBILITY.


NDZ001>003-009>011-017-200200-
NORTHWEST NORTH DAKOTA

CITY           SKY/WX    TMP DP  RH WIND       PRES   REMARKS
WILLISTON      PTCLDY    49  16  26 N24       29.99S
MINOT          CLOUDY    44  28  53 NW22G31   29.89S
MINOT AFB      CLOUDY    44  30  59 NW23G29   29.88S
$$

NDZ018>021-031>035-040>046-200200-
SOUTHWEST NORTH DAKOTA

CITY           SKY/WX    TMP DP  RH WIND       PRES   REMARKS
BISMARCK       CLOUDY    46  28  49 NW21G33   29.90S
DICKINSON      CLEAR     44  25  47 N14       29.94S
GARRISON         N/A     44  31  60 NW20G29   29.90S
HETTINGER ARPT MOCLDY    45  19  35 NW22G31   29.96F
$$

NDZ004>008-012>016-024-026-027-054-200200-
NORTHEAST NORTH DAKOTA

CITY           SKY/WX    TMP DP  RH WIND       PRES   REMARKS
GRAND FORKS    MOCLDY    42  34  73 N17       29.74R
GRND FRKS AFB  CLOUDY    43  34  70 N15G23    29.75R
DEVILS LAKE    CLOUDY    41  34  75 NW21G28   29.79R
$$

NDZ022-023-025-028>030-036>039-047>053-200200-
SOUTHEAST NORTH DAKOTA

CITY           SKY/WX    TMP DP  RH WIND       PRES   REMARKS
FARGO          CLOUDY    46  38  73 N13       29.74R
JAMESTOWN      MOCLDY    44  32  62 NW15      29.79R
$$



USA.gov is the U.S. government's official web portal to all federal, state and local government web resources and services.